Location: Saint-Usage
(47.1052°N, 5.2587°E)
Time: 17:34:36
(UTC+02:00)

ISS - Pass Details

Date: 29 September 2021
Orbit: 417 x 423 km, 51.6° (Epoch: 22 October)

Event Time Altitude Azimuth Distance (km) Brightness Sun altitude
Rises 20:11:57 0° 290° (WNW) 2,364 1.9 -9.3°
Reaches altitude 10° 20:14:08 10° 298° (WNW) 1,500 0.3 -9.6°
Maximum altitude 20:17:21 41° 10° (N) 621 -2.9 -10.2°
Enters shadow 20:19:50 15° 78° (ENE) 1,228 -2.0 -10.6°
